User: anonymous   Login
Location: Songkhla
(7.2000°N, 100.6000°E)
Time: 01:41:28
(UTC+07:00)
Language:

FO-99 - Orbit

View from above orbital plane
View from above orbital plane
View from above satellite
View from above satellite

Ground track
Ground track

The orbit data is extracted from the following two-line orbital elements,

1 43937U 19003F   21203.86640501  .00002645  00000-0  10526-3 0  9991
2 43937  97.1739 245.6278 0021389 244.9344 114.9675 15.25909372139662
Epoch (UTC): 22 July 2021 20:47:37
Eccentricity: 0.0021389
inclination: 97.1739°
perigee height: 473 km
apogee height: 503 km
right ascension of ascending node: 245.6278°
argument of perigee: 244.9344°
revolutions per day: 15.25909372
mean anomaly at epoch: 114.9675°
orbit number at epoch: 13966

The dashed part of the orbit path shows where the satellite is in the earth's shadow,  

DLR